カタログに戻る

COSMOS 1366

運用中軍事GEO
NORAD 13177·PAYLOAD·🇷🇺 Russia

打ち上げ May 17, 1982 から Baikonur Cosmodrome

Loading…

TLE

最新Source: Space-Track

元期: Sep 14, 2026, 15:54 UTC

1 13177U 82044A   26257.66263473 -.00000171  00000-0  00000-0 0  9996
2 13177   8.1005 296.4733 0006809 133.2311 244.6611  1.00268828134519

AllMySatでCOSMOS 1366をリアルタイム追跡

Download on the App Store